EW4932 Weather Reports


time (UTC)temp
C
wind
direction
speed
KPH
gust
KPH
rain 1hr
cm
rain 24hr
cm
rain mn
cm
humidity
%
barometer
mb
20260503194505 30 338 1.6 9.7 0.00 0.00 0.00 40 1009.3
20260503194006 30 354 1.6 9.7 0.00 0.00 0.00 39 1009.3
20260503193005 30 358 0.0 6.4 0.00 0.00 0.00 38 1009.5
20260503192505 29 348 1.6 6.4 0.00 0.00 0.00 34 1009.5
20260503192005 30 39 1.6 8.0 0.00 0.00 0.00 41 1009.6
20260503191505 29 71 1.6 8.0 0.00 0.00 0.00 40 1009.6
20260503191006 29 33 0.0 4.8 0.00 0.00 0.00 42 1009.7
20260503190505 28 110 0.0 4.8 0.00 0.00 0.00 39 1009.8
20260503190005 28 111 0.0 4.8 0.00 0.00 0.00 39 1009.8
20260503185505 28 94 0.0 3.2 0.00 0.00 0.00 44 1009.9
20260503185005 28 19 0.0 1.6 0.00 0.00 0.00 44 1009.9
20260503184506 27 29 0.0 6.4 0.00 0.00 0.00 39 1010.0
20260503183005 27 40 1.6 8.0 0.00 0.00 0.00 45 1010.3
20260503182506 27 37 1.6 8.0 0.00 0.00 0.00 46 1010.3
20260503182006 26 8 1.6 11.3 0.00 0.00 0.00 45 1010.4
20260503181005 26 0 0.0 0.0 0.00 0.00 0.00 44 1010.4
20260503180505 26 0 0.0 0.0 0.00 0.00 0.00 50 1010.5
20260503180005 26 0 0.0 0.0 0.00 0.00 0.00 50 1010.5
20260503175005 25 0 0.0 0.0 0.00 0.00 0.00 53 1010.6
20260503174505 25 0 0.0 0.0 0.00 0.00 0.00 48 1010.6
20260503174005 25 0 0.0 0.0 0.00 0.00 0.00 51 1010.7
20260503173505 25 0 0.0 0.0 0.00 0.00 0.00 49 1010.7
20260503172505 24 0 0.0 0.0 0.00 0.00 0.00 51 1010.8
20260503172005 23 0 0.0 0.0 0.00 0.00 0.00 56 1010.8
20260503171505 23 0 0.0 0.0 0.00 0.00 0.00 57 1010.8
20260503171005 23 0 0.0 0.0 0.00 0.00 0.00 61 1010.9
20260503170505 23 0 0.0 0.0 0.00 0.00 0.00 58 1010.9
20260503150505 14 0 0.0 0.0 0.00 0.00 0.00 96 1011.4
20260503131005 10 0 0.0 0.0 0.00 0.00 0.00 92 1011.1
20260503110505 11 0 0.0 0.0 0.00 0.00 0.00 91 1011.3
20260503090505 12 0 0.0 0.0 0.00 0.00 0.00 90 1011.8
20260503081505 13 0 0.0 0.0 0.00 0.00 0.00 88 1011.7
20260503081005 13 0 0.0 0.0 0.00 0.00 0.00 88 1011.7
20260503080506 13 0 0.0 0.0 0.00 0.00 0.00 87 1011.8
20260503072505 13 0 0.0 0.0 0.00 0.00 0.00 85 1011.8
20260503072005 13 0 0.0 0.0 0.00 0.00 0.00 85 1011.8
20260503071505 13 0 0.0 0.0 0.00 0.00 0.00 85 1011.8
20260503071005 13 0 0.0 0.0 0.00 0.00 0.00 85 1011.8
20260503070504 14 0 0.0 0.0 0.00 0.00 0.00 84 1011.8
20260503055005 15 0 0.0 0.0 0.00 0.00 0.00 82 1012.0
20260503054505 15 0 0.0 0.0 0.00 0.00 0.00 81 1011.9
20260503054005 15 0 0.0 0.0 0.00 0.00 0.00 81 1011.9
20260503053005 16 0 0.0 0.0 0.00 0.00 0.00 80 1011.7
20260503052504 16 0 0.0 0.0 0.00 0.00 0.00 79 1011.6
20260503051505 16 305 0.0 1.6 0.00 0.00 0.00 80 1011.7
20260503051005 16 303 0.0 1.6 0.00 0.00 0.00 79 1011.7
20260503050505 16 303 0.0 3.2 0.00 0.00 0.00 79 1011.7
20260503050006 16 303 0.0 3.2 0.00 0.00 0.00 79 1011.7
20260503045505 16 0 0.0 0.0 0.00 0.00 0.00 79 1011.9
20260503045004 16 0 0.0 0.0 0.00 0.00 0.00 79 1012.0
20260503044505 16 0 0.0 0.0 0.00 0.00 0.00 79 1012.0
20260503044005 16 327 0.0 1.6 0.00 0.00 0.00 79 1011.8
20260503043505 16 336 0.0 6.4 0.00 0.00 0.00 78 1011.6
20260503043005 16 339 0.0 6.4 0.00 0.00 0.00 78 1011.5
20260503042505 16 330 0.0 6.4 0.00 0.00 0.00 78 1011.5
20260503042005 16 326 0.0 6.4 0.00 0.00 0.00 77 1011.4
20260503041505 16 321 0.0 4.8 0.00 0.00 0.00 77 1011.4
20260503041005 16 0 0.0 0.0 0.00 0.00 0.00 76 1011.5
20260503040505 17 302 0.0 1.6 0.00 0.00 0.00 75 1011.6
20260503040005 17 300 0.0 3.2 0.00 0.00 0.00 75 1011.6
20260503035505 17 300 0.0 3.2 0.00 0.00 0.00 75 1011.6
20260503034505 17 0 0.0 0.0 0.00 0.00 0.00 74 1011.7
20260503034005 17 0 0.0 0.0 0.00 0.00 0.00 74 1011.6
20260503033507 17 0 0.0 0.0 0.00 0.00 0.00 73 1011.5
20260503033005 17 0 0.0 0.0 0.00 0.00 0.00 73 1011.5
20260503032505 17 0 0.0 0.0 0.00 0.00 0.00 73 1011.4
20260503032005 17 0 0.0 0.0 0.00 0.00 0.00 73 1011.3
20260503031005 18 0 0.0 0.0 0.00 0.00 0.00 72 1011.2
20260503030505 18 49 0.0 1.6 0.00 0.00 0.00 72 1011.1
20260503025505 18 0 0.0 0.0 0.00 0.00 0.00 71 1011.1
20260503025005 18 0 0.0 0.0 0.00 0.00 0.00 70 1011.3
20260503024505 18 0 0.0 0.0 0.00 0.00 0.00 70 1011.3
20260503024005 18 0 0.0 0.0 0.00 0.00 0.00 70 1011.4
20260503023506 18 213 0.0 8.0 0.00 0.00 0.00 70 1011.5
20260503023005 18 219 1.6 8.0 0.00 0.00 0.00 69 1011.6
20260503022505 18 219 1.6 8.0 0.00 0.00 0.00 69 1011.6
20260503022005 18 217 1.6 11.3 0.00 0.00 0.00 69 1011.7
20260503021506 19 220 4.8 20.9 0.00 0.00 0.00 68 1011.7
20260503021005 19 216 4.8 20.9 0.00 0.00 0.00 68 1011.9
20260503020008 20 204 4.8 22.5 0.00 0.00 0.00 67 1011.8
20260503015505 20 193 1.6 9.7 0.00 0.00 0.00 66 1011.6
20260503015006 20 187 1.6 9.7 0.00 0.00 0.00 65 1011.2
20260503014505 20 216 0.0 3.2 0.00 0.00 0.00 65 1011.0
20260503014005 20 175 0.0 3.2 0.00 0.00 0.00 65 1010.8
20260503013505 20 225 0.0 6.4 0.00 0.00 0.00 65 1010.8
20260503013005 20 228 0.0 6.4 0.00 0.00 0.00 65 1010.8
20260503012505 20 238 1.6 6.4 0.00 0.00 0.00 65 1010.8
20260503012005 20 239 1.6 6.4 0.00 0.00 0.00 65 1010.8
20260503011505 20 242 0.0 6.4 0.00 0.00 0.00 64 1010.8
20260503011004 20 237 1.6 6.4 0.00 0.00 0.00 64 1010.8
20260503010505 20 237 1.6 6.4 0.00 0.00 0.00 65 1010.8
20260503010005 20 220 0.0 6.4 0.00 0.00 0.00 64 1010.7
20260503005505 20 227 1.6 6.4 0.00 0.00 0.00 65 1010.8
20260503005006 20 224 1.6 6.4 0.00 0.00 0.00 64 1010.7
20260503004505 20 217 1.6 6.4 0.00 0.00 0.00 64 1010.7
20260503004005 20 235 1.6 6.4 0.00 0.00 0.00 63 1010.7
20260503003505 20 227 1.6 9.7 0.00 0.00 0.00 64 1010.7
20260503003005 20 222 1.6 9.7 0.00 0.00 0.00 63 1010.6
20260503002505 20 220 3.2 9.7 0.00 0.00 0.00 64 1010.7
20260503002005 20 224 3.2 9.7 0.00 0.00 0.00 62 1010.6
20260503001505 20 219 1.6 9.7 0.00 0.00 0.00 62 1010.6
20260503001006 20 208 1.6 11.3 0.00 0.00 0.00 63 1010.6
20260503000506 20 217 3.2 11.3 0.00 0.00 0.00 63 1010.7
20260503000005 21 228 1.6 11.3 0.00 0.00 0.00 62 1010.8
20260502235505 20 218 1.6 11.3 0.00 0.00 0.00 63 1010.8
20260502234505 21 221 3.2 9.7 0.00 0.00 0.00 61 1010.9
20260502234005 21 226 4.8 9.7 0.00 0.00 0.00 61 1010.9
20260502233506 21 224 3.2 9.7 0.00 0.00 0.00 61 1011.1
20260502233006 21 215 1.6 8.0 0.00 0.00 0.00 62 1011.1
20260502232505 21 216 1.6 8.0 0.00 0.00 0.00 60 1011.2
20260502232005 21 224 1.6 8.0 0.00 0.00 0.00 62 1011.2
20260502231505 21 230 1.6 9.7 0.00 0.00 0.00 61 1011.3
20260502231005 21 231 1.6 9.7 0.00 0.00 0.00 61 1011.3
20260502230505 21 0 0.0 0.0 0.00 0.00 0.00 61 1011.4
20260502230005 21 0 0.0 0.0 0.00 0.00 0.00 59 1011.4
20260502225505 21 228 0.0 4.8 0.00 0.00 0.00 59 1011.5
20260502225005 21 228 0.0 4.8 0.00 0.00 0.00 57 1011.6
20260502224506 21 230 1.6 8.0 0.00 0.00 0.00 60 1011.7
20260502223505 21 211 1.6 9.7 0.00 0.00 0.00 57 1011.8
20260502223005 21 160 1.6 8.0 0.00 0.00 0.00 59 1011.9
20260502222505 20 132 0.0 4.8 0.00 0.00 0.00 59 1012.0
20260502222005 21 0 0.0 0.0 0.00 0.00 0.00 58 1012.1
20260502221504 21 13 0.0 1.6 0.00 0.00 0.00 64 1012.2
20260502221005 21 13 0.0 1.6 0.00 0.00 0.00 66 1012.2
20260502220504 20 82 0.0 6.4 0.00 0.00 0.00 60 1012.2
20260502220005 20 145 1.6 8.0 0.00 0.00 0.00 65 1012.3
20260502215505 20 186 0.0 8.0 0.00 0.00 0.00 61 1012.4
20260502215005 20 230 0.0 4.8 0.00 0.00 0.00 61 1012.5
20260502214505 19 250 0.0 6.4 0.00 0.00 0.00 64 1012.6
20260502214005 19 251 1.6 6.4 0.00 0.00 0.00 65 1012.7
20260502213505 20 252 1.6 6.4 0.00 0.00 0.00 61 1012.8
20260502213005 19 322 0.0 1.6 0.00 0.00 0.00 68 1012.8
20260502212505 20 10 0.0 1.6 0.00 0.00 0.00 67 1012.9
20260502212005 20 2 1.6 8.0 0.00 0.00 0.00 65 1013.0
20260502211005 18 81 1.6 6.4 0.00 0.00 0.00 68 1013.2
20260502205505 17 242 1.6 6.4 0.00 0.00 0.00 74 1013.3
20260502205005 17 0 0.0 0.0 0.00 0.00 0.00 66 1013.4
20260502204505 17 83 1.6 6.4 0.00 0.00 0.00 70 1013.5
20260502204005 17 48 1.6 9.7 0.00 0.00 0.00 69 1013.7
20260502203505 17 324 1.6 9.7 0.00 0.00 0.00 67 1013.8
20260502203005 17 335 1.6 8.0 0.00 0.00 0.00 71 1013.9
20260502202505 17 332 1.6 11.3 0.00 0.00 0.00 70 1013.9
20260502201505 17 243 1.6 6.4 0.00 0.00 0.00 69 1014.0
20260502201005 17 355 1.6 8.0 0.00 0.00 0.00 74 1014.1
20260502200505 17 319 1.6 8.0 0.00 0.00 0.00 79 1014.2
20260502200005 17 304 3.2 14.5 0.00 0.00 0.00 74 1014.3